NWS6430 UWKD-UWGG

Flight info

Callsign NWS6430
Flight time 0h 37m
Altitude 36000
Route APTAR1G APTAR L158 KOKAD N604 PESAB PESAB2P
Aircraft A321/M-SDE3FGHIRWY/LB1

Departure

Time 2026-05-08 10:52
Airport Kazan International Airport (UWKD)

Arrival

Time 2026-05-08 11:30
Airport Nizhny Novgorod / Strigino International Airport (UWGG)
Time Latitude Longitude Altitude Speed Heading
2026-05-08 10:30 55.60678 49.29662 409 ft 0 kts 35°
2026-05-08 10:46 55.60695 49.29682 410 ft 5 kts 32°
2026-05-08 10:46 55.60736 49.29670 416 ft 8 kts 321°
2026-05-08 10:46 55.60777 49.29574 409 ft 12 kts 305°
2026-05-08 10:47 55.60815 49.29474 411 ft 7 kts 296°
2026-05-08 10:47 55.60789 49.29396 416 ft 9 kts 217°
2026-05-08 10:47 55.60723 49.29316 410 ft 13 kts 214°
2026-05-08 10:47 55.60639 49.29215 416 ft 13 kts 214°
2026-05-08 10:48 55.60582 49.29081 409 ft 16 kts 255°
2026-05-08 10:48 55.60583 49.28867 413 ft 17 kts 274°
2026-05-08 10:48 55.60592 49.28667 416 ft 14 kts 276°
2026-05-08 10:48 55.60638 49.28497 412 ft 17 kts 304°
2026-05-08 10:49 55.60713 49.28304 406 ft 21 kts 304°
2026-05-08 10:49 55.60801 49.28077 414 ft 24 kts 304°
2026-05-08 10:49 55.60899 49.27825 414 ft 25 kts 304°
2026-05-08 10:49 55.61000 49.27565 413 ft 25 kts 304°
2026-05-08 10:50 55.61085 49.27344 409 ft 17 kts 304°
2026-05-08 10:50 55.61154 49.27167 409 ft 17 kts 304°
2026-05-08 10:50 55.61207 49.27030 411 ft 9 kts 304°
2026-05-08 10:50 55.61224 49.26957 411 ft 6 kts 264°
2026-05-08 10:51 55.61191 49.26891 407 ft 9 kts 216°
2026-05-08 10:51 55.61134 49.26822 411 ft 9 kts 214°
2026-05-08 10:51 55.61081 49.26757 413 ft 8 kts 214°
2026-05-08 10:51 55.61039 49.26801 410 ft 10 kts 124°
2026-05-08 10:52 55.60987 49.26936 405 ft 17 kts 124°
2026-05-08 10:52 55.60753 49.27537 417 ft 108 kts 124°
2026-05-08 10:52 55.60208 49.28931 830 ft 146 kts 129°
2026-05-08 10:52 55.59632 49.30447 1696 ft 152 kts 131°
2026-05-08 10:53 55.59042 49.32011 2553 ft 155 kts 132°
2026-05-08 10:53 55.58434 49.33579 3462 ft 155 kts 130°
2026-05-08 10:53 55.57675 49.35069 4106 ft 171 kts 153°
2026-05-08 10:53 55.56497 49.35495 4547 ft 183 kts 196°
2026-05-08 10:54 55.55429 49.34245 4977 ft 196 kts 240°
2026-05-08 10:54 55.55154 49.31830 5457 ft 220 kts 274°
2026-05-08 10:54 55.55355 49.28983 6094 ft 246 kts 278°
2026-05-08 10:54 55.55673 49.25926 6943 ft 257 kts 279°
2026-05-08 10:55 55.56023 49.22805 8025 ft 260 kts 279°
2026-05-08 10:55 55.56369 49.19663 9105 ft 264 kts 280°
2026-05-08 10:55 55.56743 49.16460 10148 ft 270 kts 281°
2026-05-08 10:55 55.57159 49.13062 10634 ft 294 kts 281°
2026-05-08 10:56 55.57614 49.09432 11094 ft 315 kts 281°
2026-05-08 10:56 55.58098 49.05595 11877 ft 322 kts 281°
2026-05-08 10:56 55.58588 49.01677 12777 ft 328 kts 281°
2026-05-08 10:56 55.59075 48.97734 13657 ft 334 kts 281°
2026-05-08 10:57 55.59568 48.93695 14455 ft 338 kts 281°
2026-05-08 10:57 55.60067 48.89590 15280 ft 343 kts 281°
2026-05-08 10:57 55.61094 48.81131 16565 ft 361 kts 281°
2026-05-08 10:58 55.61624 48.76743 17341 ft 366 kts 281°
2026-05-08 10:58 55.62159 48.72308 18111 ft 370 kts 281°
2026-05-08 10:58 55.62699 48.67819 18762 ft 374 kts 281°
2026-05-08 10:58 55.63244 48.63280 19434 ft 378 kts 281°
2026-05-08 10:59 55.63788 48.58718 20118 ft 381 kts 281°
2026-05-08 10:59 55.64338 48.54100 20774 ft 385 kts 281°
2026-05-08 10:59 55.64883 48.49525 21610 ft 382 kts 281°
2026-05-08 10:59 55.65428 48.44912 22397 ft 382 kts 281°
2026-05-08 11:00 55.65975 48.40266 23060 ft 386 kts 281°
2026-05-08 11:00 55.66525 48.35573 23650 ft 389 kts 281°
2026-05-08 11:00 55.67075 48.30852 24185 ft 393 kts 281°
2026-05-08 11:00 55.67620 48.26152 24711 ft 396 kts 281°
2026-05-08 11:01 55.68186 48.21347 25233 ft 400 kts 283°
2026-05-08 11:01 55.69112 48.16670 25736 ft 404 kts 290°
2026-05-08 11:01 55.70094 48.11957 26243 ft 407 kts 285°
2026-05-08 11:01 55.70652 48.07012 26742 ft 411 kts 279°
2026-05-08 11:02 55.71138 48.02045 27249 ft 414 kts 279°
2026-05-08 11:02 55.72097 47.91892 28361 ft 418 kts 279°
2026-05-08 11:02 55.72572 47.86764 28875 ft 422 kts 279°
2026-05-08 11:03 55.73043 47.81659 29363 ft 425 kts 279°
2026-05-08 11:03 55.73527 47.76461 29850 ft 428 kts 279°
2026-05-08 11:03 55.74016 47.71212 30245 ft 431 kts 279°
2026-05-08 11:03 55.74505 47.65940 30630 ft 434 kts 279°
2026-05-08 11:04 55.74995 47.60642 31112 ft 433 kts 279°
2026-05-08 11:04 55.75476 47.55424 31654 ft 432 kts 279°
2026-05-08 11:04 55.75956 47.50169 32199 ft 430 kts 279°
2026-05-08 11:04 55.76433 47.44921 32765 ft 428 kts 279°
2026-05-08 11:05 55.76905 47.39687 33308 ft 427 kts 279°
2026-05-08 11:05 55.77369 47.34517 33844 ft 426 kts 279°
2026-05-08 11:05 55.77836 47.29295 34324 ft 425 kts 278°
2026-05-08 11:05 55.78289 47.24198 34854 ft 422 kts 278°
2026-05-08 11:06 55.78745 47.19049 35366 ft 420 kts 278°
2026-05-08 11:06 55.79198 47.13907 35755 ft 421 kts 278°
2026-05-08 11:06 55.79648 47.08764 35853 ft 419 kts 278°
2026-05-08 11:07 55.80388 47.00299 35852 ft 414 kts 278°
2026-05-08 11:07 55.81409 46.88520 35865 ft 413 kts 278°
2026-05-08 11:08 55.82265 46.78463 35865 ft 413 kts 278°
2026-05-08 11:08 55.82974 46.70036 35864 ft 413 kts 278°
2026-05-08 11:09 55.83821 46.59899 35782 ft 422 kts 278°
2026-05-08 11:09 55.84262 46.54607 35526 ft 438 kts 278°
2026-05-08 11:09 55.84714 46.49164 35460 ft 447 kts 278°
2026-05-08 11:09 55.85159 46.43759 35940 ft 444 kts 278°
2026-05-08 11:10 55.85603 46.38343 35790 ft 443 kts 278°
2026-05-08 11:10 55.86040 46.32958 34930 ft 431 kts 278°
2026-05-08 11:10 55.86464 46.27696 33207 ft 429 kts 278°
2026-05-08 11:10 55.86891 46.22357 32402 ft 444 kts 278°
2026-05-08 11:11 55.87330 46.16840 32454 ft 452 kts 278°
2026-05-08 11:11 55.87769 46.11306 32969 ft 449 kts 278°
2026-05-08 11:11 55.88195 46.05908 33230 ft 439 kts 278°
2026-05-08 11:11 55.88617 46.00542 32616 ft 437 kts 278°
2026-05-08 11:12 55.89039 45.95163 31953 ft 437 kts 278°
2026-05-08 11:12 55.89458 45.89796 31298 ft 436 kts 277°
2026-05-08 11:12 55.89876 45.84414 30590 ft 436 kts 277°
2026-05-08 11:12 55.90287 45.79073 29885 ft 436 kts 277°
2026-05-08 11:13 55.90696 45.73716 29036 ft 436 kts 277°
2026-05-08 11:13 55.91098 45.68408 28221 ft 436 kts 277°
2026-05-08 11:13 55.91501 45.63053 27415 ft 435 kts 277°
2026-05-08 11:13 55.91903 45.57689 26631 ft 435 kts 277°
2026-05-08 11:14 55.92301 45.52331 25879 ft 435 kts 277°
2026-05-08 11:14 55.92692 45.47020 25159 ft 449 kts 277°
2026-05-08 11:14 55.93101 45.41411 24416 ft 451 kts 277°
2026-05-08 11:14 55.93505 45.35866 23711 ft 444 kts 277°
2026-05-08 11:15 55.93904 45.30425 22918 ft 440 kts 277°
2026-05-08 11:15 55.94300 45.24948 22336 ft 458 kts 276°
2026-05-08 11:15 55.94702 45.19387 23313 ft 445 kts 276°
2026-05-08 11:15 55.95091 45.13961 22931 ft 433 kts 276°
2026-05-08 11:16 55.95465 45.08698 21965 ft 422 kts 276°
2026-05-08 11:16 55.95827 45.03543 21035 ft 413 kts 276°
2026-05-08 11:16 55.96178 44.98510 20184 ft 403 kts 276°
2026-05-08 11:16 55.96516 44.93653 19261 ft 395 kts 276°
2026-05-08 11:17 55.96850 44.88814 18330 ft 389 kts 276°
2026-05-08 11:17 55.97178 44.84057 17304 ft 383 kts 276°
2026-05-08 11:17 55.97499 44.79357 16300 ft 377 kts 276°
2026-05-08 11:17 55.97812 44.74733 15346 ft 372 kts 275°
2026-05-08 11:18 55.98120 44.70169 14452 ft 367 kts 276°
2026-05-08 11:18 55.98420 44.65665 13517 ft 362 kts 275°
2026-05-08 11:18 55.98711 44.61259 12828 ft 362 kts 275°
2026-05-08 11:18 55.99004 44.56805 12209 ft 360 kts 275°
2026-05-08 11:19 55.99295 44.52377 11598 ft 356 kts 276°
2026-05-08 11:19 55.99581 44.48003 10977 ft 353 kts 276°
2026-05-08 11:19 55.99862 44.43726 10522 ft 330 kts 276°
2026-05-08 11:19 56.00111 44.39959 10160 ft 289 kts 276°
2026-05-08 11:20 56.00342 44.36454 9806 ft 279 kts 276°
2026-05-08 11:20 56.00560 44.33091 9417 ft 271 kts 276°
2026-05-08 11:20 56.00770 44.29796 9024 ft 264 kts 276°
2026-05-08 11:20 56.00974 44.26584 8643 ft 257 kts 275°
2026-05-08 11:21 56.01172 44.23430 8265 ft 253 kts 275°
2026-05-08 11:21 56.01368 44.20311 7884 ft 252 kts 276°
2026-05-08 11:21 56.01563 44.17238 7512 ft 251 kts 276°
2026-05-08 11:21 56.01759 44.14141 7138 ft 250 kts 276°
2026-05-08 11:22 56.01953 44.11050 6778 ft 249 kts 276°
2026-05-08 11:22 56.02145 44.07966 6415 ft 247 kts 276°
2026-05-08 11:22 56.02332 44.04954 6050 ft 246 kts 276°
2026-05-08 11:22 56.02520 44.01900 5666 ft 245 kts 276°
2026-05-08 11:23 56.02705 43.98864 5285 ft 245 kts 276°
2026-05-08 11:23 56.02886 43.95866 4916 ft 245 kts 276°
2026-05-08 11:23 56.03069 43.92842 4536 ft 243 kts 276°
2026-05-08 11:23 56.03250 43.89827 4153 ft 243 kts 276°
2026-05-08 11:24 56.03483 43.86840 3772 ft 240 kts 279°
2026-05-08 11:24 56.03782 43.83922 3475 ft 235 kts 282°
2026-05-08 11:24 56.04090 43.81140 3227 ft 228 kts 282°
2026-05-08 11:24 56.04392 43.78422 3068 ft 213 kts 282°
2026-05-08 11:25 56.04670 43.75895 3021 ft 202 kts 282°
2026-05-08 11:25 56.05083 43.73533 3014 ft 198 kts 304°
2026-05-08 11:25 56.06197 43.72268 3018 ft 189 kts 350°
2026-05-08 11:25 56.07437 43.72760 3001 ft 185 kts 19°
2026-05-08 11:26 56.08642 43.73391 2818 ft 177 kts
2026-05-08 11:26 56.09841 43.73809 2603 ft 174 kts
2026-05-08 11:26 56.11031 43.74231 2385 ft 172 kts
2026-05-08 11:26 56.12153 43.74638 2168 ft 157 kts
2026-05-08 11:27 56.13152 43.75002 1978 ft 141 kts
2026-05-08 11:27 56.14084 43.75340 1781 ft 133 kts
2026-05-08 11:27 56.14980 43.75664 1601 ft 129 kts
2026-05-08 11:27 56.15866 43.75978 1438 ft 129 kts
2026-05-08 11:28 56.16752 43.76307 1272 ft 129 kts
2026-05-08 11:28 56.17623 43.76630 1115 ft 125 kts
2026-05-08 11:28 56.18471 43.76936 921 ft 125 kts
2026-05-08 11:28 56.19337 43.77250 745 ft 130 kts
2026-05-08 11:29 56.20228 43.77586 631 ft 129 kts 11°
2026-05-08 11:29 56.21093 43.77892 415 ft 125 kts
2026-05-08 11:29 56.21934 43.78197 266 ft 117 kts 10°
2026-05-08 11:29 56.22594 43.78438 265 ft 73 kts 11°
2026-05-08 11:30 56.22943 43.78565 268 ft 39 kts 11°
2026-05-08 11:30 56.23197 43.78657 269 ft 36 kts 11°
2026-05-08 11:30 56.23389 43.78724 266 ft 20 kts 11°
2026-05-08 11:30 56.23520 43.78771 264 ft 18 kts 14°
2026-05-08 11:31 56.23584 43.78898 265 ft 16 kts 99°
2026-05-08 11:31 56.23530 43.79084 266 ft 17 kts 120°
2026-05-08 11:31 56.23482 43.79206 266 ft 10 kts 150°
2026-05-08 11:31 56.23397 43.79192 266 ft 15 kts 192°
2026-05-08 11:32 56.23284 43.79151 266 ft 19 kts 191°
2026-05-08 11:32 56.23143 43.79099 266 ft 23 kts 192°
2026-05-08 11:32 56.22976 43.79036 266 ft 27 kts 192°
2026-05-08 11:32 56.22794 43.78970 266 ft 26 kts 191°
2026-05-08 11:33 56.22624 43.78908 266 ft 24 kts 192°
2026-05-08 11:33 56.22502 43.78863 266 ft 15 kts 191°
2026-05-08 11:33 56.22403 43.78804 266 ft 17 kts 195°
2026-05-08 11:33 56.22276 43.78756 266 ft 18 kts 191°
2026-05-08 11:34 56.22149 43.78709 266 ft 19 kts 191°
2026-05-08 11:34 56.22064 43.78678 266 ft 9 kts 192°
2026-05-08 11:34 56.22034 43.78667 266 ft 3 kts 191°
2026-05-08 11:34 56.22007 43.78691 266 ft 7 kts 129°
2026-05-08 11:35 56.21990 43.78782 266 ft 7 kts 102°
2026-05-08 11:35 56.21983 43.78845 266 ft 3 kts 101°
2026-05-08 11:35 56.21981 43.78862 266 ft 0 kts 101°